Hutchinson, KS

12:25 PM CDT on September 30, 2016 (GMT -0500)
Hutchinson Municipal

Weather History for KHUT - February, 2013

Change the Weather History Date:

Tuesday, February 26, 2013

  Actual Average Record
Temperature  
Mean Temperature 30 °F -  
Max Temperature 34 °F 46 °F 70 °F (1999)
Min Temperature 27 °F 23 °F 1 °F (2014)
Degree Days  
Heating Degree Days 34    
Moisture  
Dew Point 25 °F    
Average Humidity 81    
Maximum Humidity 93    
Minimum Humidity 64    
Precipitation  
Precipitation 0.00 in - - ()
Sea Level Pressure  
Sea Level Pressure 29.81 in    
Wind  
Wind Speed 18 mph (NNW)    
Max Wind Speed 23 mph    
Max Gust Speed 31 mph    
Visibility 5 miles    
Events      
Averages and records for this station are not official NWS values.
T = Trace of Precipitation, MM = Missing Value Source: NWS Daily Summary

Daily Weather History Graph

Daily Weather History Graph

Search for Another Location

Airport or City:

Trip Planner

Search our weather history database for the weather conditions in past years. The results will help you decide how hot, cold, wet, or windy it might be!

Date:

Astronomy

Feb. 26, 2013 Rise Set
Actual Time 7:06 AM CST 6:22 PM CST
Civil Twilight 6:40 AM CST 6:48 PM CST
Nautical Twilight 6:09 AM CST 7:19 PM CST
Astronomical Twilight 5:39 AM CST 7:49 PM CST
Moon 7:38 PM CST (2/26) 7:11 AM CST (2/26)
Length of Visible Light 12h 08m
Length of Day
11h 15m
Full, 99% of the Moon is Illuminated
Feb 26
Full
Mar 4
Last Quarter
Mar 11
New
Mar 19
First Quarter
Mar 27
Full

Hourly Weather History & Observations

Time (CST) Temp. Windchill Dew Point Humidity Pressure Visibility Wind Dir Wind Speed Gust Speed Precip Events Conditions
12:06 AM 30.2 °F 16.8 °F 28.4 °F 93% 29.79 in 1.0 mi North 23.0 mph - N/A   Mist
12:18 AM 30.2 °F 17.1 °F 28.4 °F 93% 29.79 in 1.0 mi NNW 21.9 mph - N/A   Overcast
12:35 AM 30.2 °F 16.8 °F 28.4 °F 93% 29.79 in 1.0 mi NNW 23.0 mph 31.1 mph N/A   Overcast
12:52 AM 30.9 °F 18.4 °F 28.0 °F 89% 29.80 in 1.8 mi NNW 20.7 mph 28.8 mph N/A   Overcast
1:00 AM 30.2 °F 17.1 °F 28.4 °F 93% 29.78 in 2.0 mi NNW 21.9 mph - N/A   Overcast
1:24 AM 30.2 °F 18.1 °F 28.4 °F 93% 29.78 in 3.0 mi North 18.4 mph 25.3 mph N/A   Overcast
1:49 AM 30.2 °F 18.1 °F 28.4 °F 93% 29.80 in 4.0 mi NNW 18.4 mph - N/A   Overcast
1:52 AM 30.9 °F 19.8 °F 28.0 °F 89% 29.81 in 4.0 mi North 16.1 mph 23.0 mph N/A   Overcast
2:13 AM 30.2 °F 18.5 °F 28.4 °F 93% 29.78 in 2.0 mi North 17.3 mph - N/A   Overcast
2:28 AM 30.2 °F 17.8 °F 26.6 °F 86% 29.78 in 2.5 mi North 19.6 mph - N/A   Overcast
2:44 AM 30.2 °F 18.1 °F 26.6 °F 86% 29.78 in 4.0 mi North 18.4 mph - N/A   Overcast
2:52 AM 30.9 °F 19.8 °F 27.0 °F 85% 29.80 in 5.0 mi North 16.1 mph - N/A   Overcast
3:29 AM 30.2 °F 18.1 °F 26.6 °F 86% 29.78 in 2.0 mi North 18.4 mph - N/A   Overcast
3:38 AM 30.2 °F 19.3 °F 26.6 °F 86% 29.78 in 1.8 mi North 15.0 mph - N/A   Overcast
3:45 AM 30.2 °F 18.9 °F 26.6 °F 86% 29.78 in 1.8 mi North 16.1 mph - N/A   Overcast
3:52 AM 30.0 °F 17.9 °F 27.0 °F 88% 29.79 in 1.5 mi NNW 18.4 mph - N/A   Overcast
4:08 AM 30.2 °F 19.8 °F 26.6 °F 86% 29.78 in 2.5 mi NNW 13.8 mph - N/A   Overcast
4:15 AM 30.2 °F 19.3 °F 26.6 °F 86% 29.77 in 4.0 mi NNW 15.0 mph - N/A   Overcast
4:22 AM 30.2 °F 19.3 °F 26.6 °F 86% 29.76 in 5.0 mi North 15.0 mph - N/A   Overcast
4:52 AM 30.0 °F 19.5 °F 26.1 °F 85% 29.78 in 6.0 mi NNW 13.8 mph - N/A   Overcast
5:52 AM 28.9 °F 18.2 °F 24.1 °F 82% 29.77 in 6.0 mi NNW 13.8 mph - N/A   Haze
6:52 AM 28.0 °F 15.7 °F 23.0 °F 81% 29.76 in 6.0 mi NNW 17.3 mph - N/A   Haze
7:52 AM 27.0 °F 14.3 °F 21.9 °F 81% 29.78 in 6.0 mi NNW 17.3 mph - N/A   Haze
8:52 AM 28.9 °F 16.1 °F 23.0 °F 78% 29.80 in 6.0 mi NNW 19.6 mph - N/A   Haze
9:52 AM 30.0 °F 18.7 °F 23.0 °F 75% 29.80 in 7.0 mi North 16.1 mph - N/A   Mostly Cloudy
10:52 AM 30.9 °F 20.7 °F 24.1 °F 76% 29.82 in 6.0 mi NNW 13.8 mph 23.0 mph N/A   Haze
11:52 AM 32.0 °F 21.6 °F 24.1 °F 73% 29.82 in 8.0 mi NW 15.0 mph - N/A   Mostly Cloudy
12:52 PM 33.1 °F 23.4 °F 23.0 °F 66% 29.81 in 8.0 mi NNW 13.8 mph - N/A   Overcast
1:52 PM 34.0 °F 24.6 °F 24.1 °F 67% 29.80 in 9.0 mi WNW 13.8 mph - N/A   Scattered Clouds
2:29 PM 33.8 °F 24.3 °F 23.0 °F 65% 29.78 in 9.0 mi NNW 13.8 mph - N/A   Clear
2:52 PM 34.0 °F 24.6 °F 23.0 °F 64% 29.80 in 9.0 mi NNW 13.8 mph - N/A   Clear
3:52 PM 34.0 °F 25.5 °F 24.1 °F 67% 29.82 in 8.0 mi NNW 11.5 mph - N/A   Clear
4:52 PM 32.0 °F 21.6 °F 24.1 °F 73% 29.85 in 8.0 mi WNW 15.0 mph - N/A   Clear
5:52 PM 30.9 °F 21.7 °F 23.0 °F 72% 29.86 in 8.0 mi NNW 11.5 mph - N/A   Clear
6:52 PM 28.9 °F 19.2 °F 21.9 °F 75% 29.90 in 9.0 mi NW 11.5 mph - N/A   Clear
7:52 PM 27.0 °F 18.7 °F 21.0 °F 78% 29.94 in 8.0 mi WNW 8.1 mph - N/A   Mostly Cloudy
8:52 PM 30.0 °F 20.5 °F 23.0 °F 75% 29.94 in 8.0 mi NNW 11.5 mph - N/A   Overcast
9:52 PM 28.9 °F 19.2 °F 21.9 °F 75% 29.93 in 7.0 mi North 11.5 mph - N/A   Scattered Clouds
11:52 PM 30.0 °F 21.7 °F 24.1 °F 79% 29.96 in 5.0 mi NNW 9.2 mph - N/A   Haze